Vertical_Velocity
-0 -0 -1 -1 -1 -1 -1 -1 -1 -1 -1 -1 -1 -1 -0 -1 -1 -1 -1 -1 -1 -1 -0 -0 -0 -0 -0 -0 -0 -0 -0 -0 -0 -0 -1 -1 -2 -2 -1 -0 -0 -0 0 4 4 2 1 1 1 1 1 1 0 1 1 2 3 4 7 5 5 5 4 4 7 8 6 10 10 8 8 8 5 2 1 1 1 0 -0 -0 -1 -1 -0 -1 -1 -1 -0 -1 -2 -3 -3 1 -1 -3 -2 -1 -0 -0 -0 -1 -1 -1 -0
-0 -0 -1 -1 -1 -1 -1 -1 -1 -1 -1 -1 -1 -1 -1 -1 -1 -1 -1 -0 -1 -1 -0 -0 -0 -0 -0 -1 -0 -0 -0 -0 0 0 -0 -0 -1 -1 -0 0 0 1 2 4 4 2 1 1 1 1 0 1 1 1 1 1 2 3 5 -0 0 4 6 3 6 9 9 11 13 13 8 6 4 4 3 2 1 0 0 -0 -0 -1 -1 -1 -1 -1 -1 -0 -1 -1 2 13 10 1 -5 -4 -2 -1 -0 -1 -1 -1 -1
-0 -0 -0 -1 -1 -1 -1 -1 -1 -1 -1 -1 -1 -1 -0 -1 -0 -0 -0 -0 -0 -0 -0 -0 -0 -0 -1 -1 -1 -0 -0 -0 -0 -0 0 0 -0 -0 -0 -1 -0 -0 1 2 2 1 1 1 1 0 0 1 1 1 1 0 1 2 4 -4 -4 1 9 6 2 -1 5 6 15 23 22 11 6 5 5 4 2 1 1 0 -0 -0 -0 -1 -1 -1 -1 -1 -1 -0 1 9 15 14 1 -3 -3 -2 -2 -2 -1 -1 -2
-1 -1 -0 -0 -1 -1 -1 -1 -1 -1 -1 -1 -1 -0 -0 -1 -0 -0 -0 -0 -0 -0 -0 -0 -0 -0 -1 -1 -0 -0 -0 -0 -0 -0 -0 0 0 0 0 -0 -1 -1 -0 -1 -0 0 1 2 1 1 1 0 1 1 0 -0 -1 0 2 -2 -4 -1 9 10 0 -10 -12 -1 11 23 34 19 10 6 6 5 3 2 1 2 1 0 -0 -0 -1 -2 -2 -2 -1 -0 -0 2 8 14 13 7 5 5 2 -0 -1 -2 -3
-1 -1 -0 -0 -1 -1 -1 -1 -1 -1 -1 -1 -1 -1 -0 -1 -0 -0 -0 -0 -0 -0 -0 -0 -0 -0 -0 -1 -0 -0 -2 -1 -0 -0 -0 -0 0 0 0 -0 -1 -1 -1 -1 -0 1 2 2 2 1 0 1 2 1 1 -0 -1 -1 0 -0 -3 -3 5 8 3 -10 -30 -8 8 19 27 16 7 4 6 6 4 2 0 3 2 -0 -1 -0 -0 -1 -2 -2 -1 -1 -2 -0 3 6 7 6 6 7 8 3 0 -1 -2
-1 -1 -1 -1 -1 -1 -1 -1 -1 -1 -1 -1 -1 -1 -1 -1 -1 -0 -0 -0 -0 -0 -0 -0 -0 -0 -0 -0 -0 -0 -0 -0 -0 -0 -0 -0 -0 0 0 -1 -1 -0 -1 -0 1 1 2 2 1 1 0 4 3 0 2 1 -1 -1 -1 -1 -4 -5 -1 3 3 -5 -25 -17 -2 11 13 6 1 -1 4 4 4 3 1 2 4 5 1 -1 -1 -0 -1 -1 -2 -2 -1 -1 -1 -2 -4 -2 1 5 11 5 1 -1 -2
-1 -1 -1 -1 -1 -1 -1 -1 -1 -1 -1 -1 -1 -1 -1 -1 -1 -0 -0 -0 -0 -0 -0 -0 -0 -0 -0 -0 -0 -1 -1 -1 -0 -0 -0 -0 -0 -0 0 -0 -0 0 1 1 1 2 2 1 1 1 0 4 4 2 0 1 -0 -1 -1 -1 -3 -3 -0 3 4 1 -7 -21 -20 -10 -3 8 10 7 5 2 1 1 1 0 2 5 7 1 -1 -1 -0 -1 -2 -2 -1 -1 -1 -2 -5 -4 -2 1 7 4 1 -1 -1
-1 -1 -1 -1 -1 -1 -1 -1 -1 -1 -1 -1 -1 -1 -1 -1 -1 -1 -0 -0 -0 -0 -0 -0 -0 -0 -0 -0 -0 -1 -1 -1 -0 -0 -0 -0 -0 -0 0 0 0 1 1 1 1 1 2 1 1 1 -0 0 5 6 -0 -0 -1 -1 -0 0 1 1 2 4 6 6 1 -13 -23 -25 -13 2 19 27 16 4 0 0 -0 -1 -1 1 5 4 1 -2 -1 -1 -1 -2 -2 -1 -1 -1 -3 -2 -1 3 12 7 3 -0 -1
-1 -1 -1 -1 -1 -1 -1 -1 -1 -1 -1 -1 -1 -1 -1 -1 -1 -1 -1 -1 -0 -0 -0 -0 -0 -0 -0 -0 -0 -0 -0 -0 -0 -0 0 0 -0 -0 -0 -0 0 1 1 1 1 1 1 2 2 2 0 -0 4 8 5 2 -0 -1 -2 -1 0 1 1 3 5 5 2 2 -3 -9 -12 0 10 17 19 8 2 0 -0 -2 -2 -1 0 2 3 2 -2 -2 -2 -2 -2 -2 -1 -1 -1 0 2 6 18 11 4 0 0
-1 -1 -1 -1 -1 -1 -1 -1 -1 -1 -1 -1 -1 -1 -1 -1 -0 -0 -1 -1 -0 -0 -0 -0 -0 -0 -0 -1 -1 -0 -0 -0 -0 -0 0 0 -0 -0 -1 -0 -0 0 1 1 1 1 1 1 2 2 0 -1 2 6 9 5 2 -1 -3 -3 -2 -0 1 1 1 1 -1 3 5 4 -2 5 10 12 12 8 4 1 -0 -1 -2 -3 -1 -0 3 6 3 -1 -2 -2 -2 -2 -2 -1 -1 0 -0 2 12 15 11 5 1
-1 -1 -1 -1 -1 -1 -1 -1 -1 -1 -1 -0 -0 -0 -1 -1 -0 -0 -1 -0 -0 -0 -1 -1 -1 -1 -1 -1 -1 -1 -1 -1 -1 -1 -0 -0 -0 -0 -0 -1 -1 -0 0 1 1 1 1 1 1 1 0 -1 -0 2 5 4 2 0 -2 -3 -3 -3 -1 -2 -1 -1 -4 -0 4 8 7 9 12 13 13 9 6 3 1 -0 -1 -2 -2 -1 1 4 6 2 -0 -2 -2 -2 -2 -2 -1 -1 -2 -1 1 10 15 14 6
-1 -1 -0 -1 -1 -1 -1 -1 -0 -0 -1 -0 -0 -0 -1 -1 -0 -0 -0 -0 -0 -0 -0 -0 -0 -0 -1 -1 -1 -1 -1 -1 -1 -1 -1 -0 -0 -0 -0 -0 -1 -1 -1 -0 1 1 1 1 0 -0 -0 -1 -2 -1 0 -1 -1 -2 -3 -3 -3 -4 -5 -7 -5 -2 -3 -3 0 4 5 9 13 15 13 8 5 3 2 0 -1 -1 -0 -1 -0 1 5 5 2 -1 -2 -2 -2 -2 -2 -3 -3 -2 -1 1 9 15 15
-0 -1 -1 -0 -0 -0 -1 -0 -0 -0 -1 -0 -0 -0 -0 -1 -1 -0 -0 -0 -0 0 -0 -0 -0 -0 -0 -0 -1 -1 -1 -1 -1 -1 -1 -1 -0 -0 0 -0 -0 -1 -1 -1 -0 1 1 1 0 -0 -1 -1 -1 -1 -2 -6 -6 -5 -4 -4 -4 -4 -4 -6 -6 -6 -4 -4 -4 -2 -1 4 8 10 9 6 3 2 2 1 -0 -1 0 1 0 0 2 5 4 2 -1 -2 -2 -2 -2 -3 -3 -2 -2 -2 -0 3 9
-0 -1 -1 -0 -0 -0 -0 -0 -0 -0 -0 -0 -0 -0 -0 -1 -1 -1 -0 -0 -0 0 0 0 0 0 0 -0 -0 0 -0 -0 -0 -0 -1 -1 -0 -0 -0 0 0 -0 -1 -1 -0 -0 0 1 1 0 -1 -0 -0 -1 -3 -6 -5 -3 -2 -2 -3 -4 -3 -4 -6 -7 -6 -5 -6 -7 -7 -2 1 2 3 2 1 0 1 1 0 -0 0 1 1 1 -0 2 4 4 3 -1 -2 -2 -2 -2 -2 -2 -2 -2 -2 -2 -2
-1 -1 -1 -0 0 0 -0 -0 0 0 -0 -0 -0 -0 -0 -1 -1 -1 -1 -1 -0 -0 0 -0 0 0 0 0 0 1 1 0 -0 -0 -0 -0 -0 -0 -0 0 0 0 0 -0 -1 -1 -0 0 1 1 1 1 1 0 -2 -3 -2 -0 1 0 -1 -2 -4 -5 -6 -7 -9 -8 -7 -8 -8 -4 -3 -2 -1 -2 -2 -1 -0 0 0 1 1 1 2 2 1 -0 0 2 5 4 1 -2 -3 -2 -2 -2 -2 -2 -1 -2 -3
-1 -1 -0 -0 0 0 -0 -0 0 0 -0 -0 -0 0 -0 -0 -1 -1 -1 -1 -1 -0 -0 -0 -0 -0 0 0 1 1 1 0 -0 -0 -0 -0 -0 -0 -0 -0 0 1 0 0 -0 -1 -1 -0 0 1 1 1 1 1 -0 -0 0 1 1 1 -0 -1 -3 -5 -6 -8 -10 -10 -8 -6 -5 -2 -2 -3 -3 -2 -2 -2 -1 -0 -0 0 2 2 1 2 2 1 0 0 1 4 4 3 -1 -2 -2 -2 -2 -2 -1 -1 -2
-1 -1 -0 -0 0 0 -0 0 1 1 0 -0 0 0 0 -0 -1 -1 -1 -1 -1 -0 -0 -0 -0 -0 -0 -0 0 0 0 -0 -0 -0 -0 -0 -0 -0 -0 -0 -0 -0 -0 0 0 -0 -0 -0 -0 -0 0 0 1 1 1 1 1 0 0 0 0 0 -0 -2 -4 -6 -8 -8 -7 -5 -3 -2 -1 -1 -2 -1 -1 -1 -2 -1 -1 -0 1 2 2 1 2 2 2 1 -0 -0 2 5 5 2 -2 -3 -2 -2 -1 -1 -1
-0 -0 -0 0 0 1 0 0 1 1 1 0 0 1 1 0 -0 -1 -1 -0 -0 -0 -0 -0 -0 -0 -0 -0 -1 -1 -1 -1 -1 -1 -1 -0 -0 -0 -1 -1 -1 -1 -1 -1 -0 -0 -0 -0 -0 -0 -0 0 0 0 1 1 0 0 0 1 1 1 1 1 0 -1 -2 -2 -2 -2 -2 -3 -2 -2 -1 -1 -1 -2 -4 -4 -2 -0 -0 1 2 2 1 1 2 2 1 -0 -1 0 5 7 4 0 -3 -2 -1 -0 -1
-0 0 0 0 1 1 0 0 1 2 1 1 1 1 2 1 0 -0 -0 -0 -0 -0 0 0 0 -0 -0 -1 -1 -2 -2 -1 -1 -1 -1 -1 -1 -1 -1 -1 -1 -1 -2 -1 -1 -1 -0 -0 -1 -0 -0 -0 -0 0 0 0 0 0 0 1 1 1 2 2 2 2 2 2 2 1 -0 -2 -2 -3 -3 -2 -2 -4 -6 -8 -4 -1 1 -0 0 1 3 1 1 1 2 1 0 -1 -0 4 7 7 0 -2 -2 -1 -1
0 1 1 0 1 1 1 0 1 2 2 1 1 2 2 2 1 1 0 0 0 0 0 1 0 0 -0 -1 -1 -2 -2 -1 -1 -1 -1 -1 -1 -1 -1 -1 -1 -2 -2 -2 -1 -1 -1 -1 -1 -1 -1 -0 -0 -0 -0 -0 -0 -0 -0 0 0 1 1 1 2 2 2 2 2 1 0 -1 -2 -2 -3 -3 -3 -3 -4 -7 -5 -1 2 1 -1 -1 2 5 4 1 0 2 2 1 -0 -0 2 4 2 -1 -2 -1 -1
0 1 1 0 1 1 1 0 1 1 1 1 1 1 1 1 1 1 1 1 1 1 1 1 0 0 -0 -1 -1 -1 -1 -1 -1 -1 -1 -1 -1 -1 -1 -1 -1 -1 -2 -2 -2 -2 -2 -2 -2 -1 -1 -0 -0 -0 -0 -1 -1 -1 -0 -0 -0 0 0 1 1 1 1 1 0 0 -0 -0 -1 -1 -2 -2 -2 -2 -1 -3 -2 -1 1 0 -1 -2 -2 5 9 9 3 1 1 2 3 1 -0 -1 -0 1 0 -1 -1
-0 0 1 0 0 0 0 -0 -0 0 0 1 0 -0 0 0 0 0 0 -0 -0 0 0 0 -0 -0 -1 -1 -1 -1 -2 -1 -1 -1 -1 -1 -1 -1 -1 -1 -1 -1 -1 -1 -1 -2 -2 -2 -2 -2 -1 -1 -0 -0 -0 -0 -1 -1 -1 -1 -0 -0 0 0 0 0 -0 -0 -0 -0 -0 -0 -0 -0 -1 -1 -1 -2 -1 -1 -1 -1 -1 -3 -3 -3 -3 -0 5 10 13 8 3 0 2 3 2 1 -0 -0 0 -0 -1
-1 -1 -0 -1 -1 -1 -1 -1 -1 -1 -1 -1 -1 -1 -1 -1 -1 -1 -1 -1 -1 -1 -1 -1 -1 -1 -1 -1 -1 -1 -1 -1 -2 -1 -1 -0 -0 -1 -1 -1 -1 -1 -1 -1 -1 -1 -2 -2 -2 -2 -2 -2 -1 -1 -0 -0 -0 -0 -0 -1 -0 -0 -0 -0 -0 0 -0 -0 -0 -0 -0 -0 -0 -0 -0 -0 -0 -1 -1 -1 -2 -2 -2 -4 -7 -8 -5 -3 -1 3 9 13 13 9 2 1 1 2 2 1 0 -0 -1
-2 -2 -2 -2 -3 -3 -2 -2 -3 -3 -2 -2 -2 -2 -2 -2 -2 -2 -2 -2 -2 -2 -2 -2 -2 -2 -2 -1 -1 -1 -1 -1 -1 -1 -1 -0 -0 -0 -0 -0 -1 -1 -1 -1 -1 -1 -1 -2 -2 -2 -2 -2 -2 -1 -1 -1 -1 -1 -0 -0 -0 -0 -0 -0 -0 -0 -0 -0 -0 -0 -0 -0 -0 -0 -0 0 0 0 -0 -0 -1 -2 -2 -3 -5 -8 -8 -6 -4 -1 1 6 12 15 13 5 1 0 2 2 2 1 0
-3 -3 -3 -3 -4 -4 -4 -4 -4 -4 -4 -4 -4 -3 -3 -3 -3 -2 -2 -2 -2 -3 -3 -3 -2 -2 -2 -2 -1 -1 -1 -1 -1 -1 -1 -1 -0 -0 -0 -0 -0 -0 -0 -0 -0 -1 -1 -1 -2 -2 -2 -2 -2 -2 -2 -2 -2 -1 -1 -1 -1 -0 -0 -0 -0 -0 -0 -0 -0 -0 -0 -0 -0 -0 -0 -0 0 0 0 0 -0 -1 -2 -3 -3 -4 -6 -8 -7 -5 -2 1 4 8 14 13 7 1 -0 1 2 1 1
-3 -3 -4 -4 -4 -4 -4 -4 -4 -4 -4 -4 -4 -3 -3 -2 -2 -2 -2 -2 -3 -3 -3 -2 -2 -2 -2 -2 -2 -2 -2 -2 -2 -2 -1 -1 -1 -1 -1 -1 -1 -0 -0 -0 -0 -0 -0 -0 -1 -2 -2 -2 -2 -2 -2 -2 -2 -2 -2 -2 -1 -1 -1 -1 -1 -1 -0 -0 -0 -0 -0 -0 -0 -0 -0 -0 -0 0 0 0 0 -0 -0 -1 -2 -3 -3 -6 -8 -9 -7 -3 0 3 5 10 11 8 1 0 1 1 1
-3 -4 -4 -3 -3 -3 -3 -3 -3 -3 -3 -3 -3 -3 -3 -2 -2 -2 -2 -3 -3 -2 -2 -2 -2 -2 -2 -2 -2 -2 -2 -2 -2 -3 -2 -2 -2 -2 -2 -2 -1 -1 -1 -1 -0 0 0 0 -0 -1 -2 -2 -2 -2 -2 -2 -2 -2 -2 -2 -2 -2 -1 -1 -1 -1 -1 -1 -0 -0 -0 -0 -0 -0 -0 -0 -0 -0 -0 0 0 0 0 -0 -1 -2 -3 -4 -5 -8 -10 -8 -4 -1 1 3 6 8 7 3 1 0 1
-3 -3 -3 -3 -3 -3 -3 -3 -2 -2 -3 -3 -2 -2 -2 -3 -3 -2 -2 -3 -3 -3 -3 -3 -3 -2 -3 -2 -2 -2 -2 -2 -3 -3 -3 -2 -3 -3 -3 -3 -3 -2 -2 -1 -1 -0 0 0 0 -0 -0 -1 -2 -2 -2 -1 -1 -2 -2 -2 -2 -2 -2 -2 -2 -1 -1 -1 -1 -1 -0 -0 -1 -1 -1 -1 -1 -1 -1 -0 0 0 0 0 0 0 -1 -2 -3 -5 -8 -11 -10 -6 -1 0 1 3 5 6 4 2 0
-3 -3 -3 -3 -2 -2 -2 -2 -2 -2 -2 -2 -2 -2 -2 -2 -2 -2 -3 -3 -3 -3 -2 -2 -2 -2 -3 -3 -3 -3 -3 -3 -3 -2 -2 -3 -3 -3 -4 -3 -3 -3 -2 -2 -2 -2 -1 -1 -0 -0 -0 -0 -1 -1 -1 -1 -1 -1 -2 -2 -2 -2 -2 -2 -2 -2 -2 -2 -1 -1 -1 -1 -1 -1 -1 -1 -1 -1 -1 -1 -0 -0 0 1 1 1 1 -0 -1 -3 -4 -8 -10 -11 -7 -3 -0 1 1 3 5 6 3
-3 -3 -2 -2 -2 -2 -2 -2 -2 -2 -2 -2 -2 -2 -2 -2 -2 -2 -3 -3 -3 -2 -2 -1 -2 -2 -3 -3 -3 -4 -4 -4 -3 -3 -2 -2 -3 -3 -4 -3 -3 -3 -3 -3 -3 -3 -3 -2 -2 -2 -1 -1 -0 -1 -1 -1 -0 -0 -1 -1 -2 -2 -2 -2 -2 -2 -1 -1 -1 -1 -1 -1 -1 -1 -0 -0 -0 -0 -0 -1 -1 -1 -0 0 0 1 1 1 1 0 -1 -3 -5 -7 -10 -9 -6 -2 -0 0 2 3 5
-2 -2 -2 -2 -2 -2 -2 -2 -2 -2 -2 -2 -2 -2 -2 -2 -2 -2 -3 -3 -3 -3 -2 -2 -2 -2 -3 -3 -3 -4 -4 -4 -3 -3 -2 -3 -3 -3 -3 -3 -3 -3 -3 -3 -3 -3 -3 -3 -3 -2 -2 -1 -1 -1 -1 -1 -0 0 0 -0 -1 -2 -2 -2 -2 -2 -1 -1 -1 -1 -1 -1 -1 -1 -1 -0 0 0 -0 -0 -1 -1 -1 -0 -0 0 1 1 1 1 1 -0 -1 -2 -3 -7 -10 -9 -4 -1 1 1 1
-2 -2 -2 -2 -2 -2 -2 -2 -2 -2 -2 -2 -2 -2 -2 -2 -2 -2 -3 -3 -3 -3 -2 -2 -3 -3 -3 -3 -3 -3 -3 -3 -3 -2 -2 -3 -3 -3 -2 -2 -2 -3 -2 -2 -2 -2 -3 -3 -3 -2 -2 -2 -2 -2 -2 -1 -1 0 1 0 -0 -1 -1 -1 -2 -1 -1 -1 -1 -0 -0 -0 -0 0 0 0 -0 -0 -0 -0 -0 -0 -1 -1 -1 -0 0 0 1 1 2 2 1 0 -0 -0 -3 -5 -6 -4 -1 1 1
-2 -2 -2 -3 -3 -2 -2 -2 -2 -2 -2 -2 -2 -2 -3 -3 -2 -2 -3 -2 -2 -2 -1 -2 -2 -3 -3 -3 -2 -2 -2 -2 -2 -2 -2 -3 -3 -3 -2 -2 -2 -2 -2 -2 -2 -2 -3 -3 -3 -2 -2 -2 -1 -2 -2 -2 -1 -1 -0 0 0 0 -0 -1 -1 -1 -1 -1 -1 -0 0 0 0 1 0 0 -0 -0 -0 -0 -0 -0 -0 -0 -0 -0 -0 0 1 1 1 2 1 1 0 1 1 1 -1 -2 -1 -1 -0
-2 -2 -2 -2 -2 -2 -2 -2 -2 -2 -2 -2 -2 -2 -3 -3 -2 -2 -2 -1 -1 -0 -1 -1 -2 -2 -2 -2 -2 -2 -1 -1 -1 -2 -2 -2 -2 -2 -2 -2 -2 -2 -2 -2 -2 -2 -2 -2 -3 -3 -2 -2 -1 -1 -2 -2 -2 -1 -1 -0 -0 0 0 -0 -0 -0 -0 -0 -0 -0 0 0 0 0 0 -0 -1 -1 -1 -0 -0 -0 0 -0 -0 -0 -0 0 0 1 1 1 1 1 1 1 1 1 1 1 1 1 -1
-2 -2 -2 -2 -2 -2 -2 -2 -2 -2 -2 -2 -2 -3 -3 -2 -2 -2 -1 -1 -1 -0 -1 -1 -1 -1 -1 -1 -1 -1 -0 -0 -0 -1 -2 -2 -2 -2 -2 -2 -2 -2 -2 -1 -2 -2 -2 -2 -2 -2 -2 -2 -2 -1 -2 -2 -2 -2 -1 -1 -0 -0 0 0 0 0 0 0 0 -0 -0 -0 -0 -1 -1 -2 -2 -2 -1 -1 -0 -0 0 0 0 0 0 0 0 0 0 0 1 1 1 0 0 0 0 0 0 1 1
-2 -2 -2 -2 -2 -2 -2 -2 -2 -2 -2 -2 -3 -3 -2 -2 -2 -2 -2 -2 -2 -2 -2 -1 -2 -2 -2 -2 -2 -2 -1 -1 -0 -0 -1 -1 -1 -1 -2 -2 -2 -1 -2 -2 -2 -2 -2 -2 -2 -3 -3 -2 -2 -2 -2 -2 -2 -2 -1 -1 -0 -0 -0 -0 0 0 0 0 -0 -0 -0 -0 -1 -2 -2 -3 -3 -2 -2 -2 -1 -1 -0 0 0 0 0 -0 -0 -0 -0 -0 -0 -0 -0 -0 -0 -1 -1 -1 -1 -0 -0
-2 -2 -2 -2 -2 -2 -2 -2 -2 -2 -2 -2 -3 -3 -2 -2 -2 -3 -2 -3 -3 -3 -3 -2 -3 -3 -4 -4 -4 -4 -3 -3 -3 -2 -1 -1 -1 -1 -2 -2 -2 -2 -2 -2 -2 -2 -3 -3 -3 -3 -3 -3 -2 -2 -2 -2 -2 -2 -1 -1 -1 -1 -1 -1 -1 -1 -1 -1 -2 -1 -1 -1 -1 -2 -2 -3 -3 -3 -3 -2 -2 -1 -1 -1 -0 -0 -0 0 0 -0 -0 -0 -0 0 0 0 -0 -0 -1 -2 -1 -1 -0
-2 -2 -2 -2 -2 -2 -2 -2 -2 -2 -2 -2 -3 -3 -3 -2 -3 -3 -3 -3 -4 -4 -4 -3 -3 -2 -3 -3 -3 -3 -4 -4 -4 -4 -3 -3 -3 -3 -3 -3 -3 -3 -2 -2 -2 -2 -3 -3 -3 -3 -3 -3 -3 -2 -2 -2 -2 -2 -2 -2 -2 -1 -1 -2 -2 -3 -3 -3 -3 -3 -2 -2 -2 -2 -2 -2 -2 -2 -3 -3 -2 -2 -2 -2 -2 -1 -1 -0 -0 -0 -0 -0 0 1 1 1 1 1 -0 -1 -1 -0 0
-2 -2 -2 -2 -2 -2 -2 -2 -2 -2 -2 -2 -3 -3 -3 -3 -3 -3 -3 -3 -4 -4 -6 -5 -4 -3 -2 -2 -2 -2 -3 -4 -4 -4 -4 -4 -4 -4 -3 -3 -3 -3 -3 -3 -2 -3 -3 -4 -4 -4 -4 -4 -3 -3 -2 -2 -2 -2 -2 -2 -2 -2 -2 -2 -3 -3 -4 -4 -4 -4 -3 -3 -3 -3 -2 -2 -2 -2 -2 -2 -2 -2 -2 -2 -2 -2 -2 -1 -1 -0 0 0 1 1 1 1 1 1 1 0 0 0 -0
-2 -2 -2 -2 -2 -2 -2 -2 -2 -2 -2 -2 -3 -3 -3 -3 -3 -3 -3 -3 -3 -4 -5 -6 -6 -6 -4 -3 -3 -3 -2 -3 -4 -4 -4 -4 -4 -4 -4 -3 -3 -3 -3 -3 -4 -4 -4 -5 -5 -5 -4 -4 -3 -3 -2 -2 -2 -2 -2 -2 -2 -3 -3 -3 -3 -3 -4 -4 -4 -3 -3 -3 -3 -3 -2 -2 -1 -1 -1 -1 -1 -2 -2 -2 -3 -3 -3 -2 -2 -1 -0 0 1 1 1 0 -0 -0 0 1 1 1 0
-2 -2 -2 -2 -2 -2 -2 -2 -2 -2 -2 -3 -3 -3 -3 -3 -4 -4 -4 -4 -3 -3 -4 -5 -6 -7 -6 -5 -5 -4 -4 -3 -4 -5 -5 -4 -4 -4 -4 -3 -3 -3 -4 -4 -5 -5 -6 -6 -6 -6 -5 -4 -3 -3 -2 -2 -2 -2 -2 -2 -2 -2 -3 -3 -3 -4 -3 -3 -3 -3 -2 -2 -2 -2 -3 -2 -2 -1 -0 -0 -0 -1 -2 -2 -3 -3 -3 -3 -2 -2 -1 -0 0 0 0 -0 -0 -1 -0 0 0 0 0
-2 -2 -2 -2 -3 -3 -3 -2 -2 -3 -3 -3 -3 -3 -3 -4 -4 -4 -4 -4 -4 -3 -3 -4 -5 -6 -6 -6 -6 -6 -5 -4 -4 -5 -6 -5 -4 -3 -3 -3 -3 -3 -4 -5 -5 -6 -6 -6 -6 -6 -5 -4 -3 -2 -2 -2 -2 -2 -3 -3 -2 -2 -3 -3 -3 -3 -3 -3 -3 -2 -2 -2 -2 -2 -3 -3 -3 -3 -2 -1 -1 -1 -1 -2 -2 -3 -3 -3 -3 -3 -2 -1 -1 -0 -0 -0 -1 -1 -1 -0 -0 -0 -0
-2 -2 -3 -3 -3 -3 -3 -3 -3 -3 -3 -3 -3 -3 -3 -3 -4 -4 -4 -4 -4 -4 -3 -4 -4 -5 -6 -6 -6 -7 -8 -7 -6 -6 -6 -6 -5 -4 -3 -4 -4 -4 -4 -5 -5 -5 -5 -6 -6 -6 -5 -4 -4 -3 -2 -3 -3 -3 -3 -3 -3 -3 -3 -3 -2 -2 -2 -2 -2 -2 -2 -2 -2 -2 -3 -4 -4 -4 -4 -3 -2 -1 -1 -1 -1 -2 -2 -3 -3 -3 -3 -3 -2 -1 -1 -0 -0 -1 -0 -0 -0 -0 -1
-2 -2 -3 -3 -3 -3 -3 -3 -3 -3 -3 -4 -4 -4 -4 -3 -4 -4 -4 -4 -4 -4 -4 -3 -3 -4 -6 -6 -7 -7 -8 -9 -9 -8 -7 -6 -6 -6 -5 -5 -5 -5 -4 -4 -4 -4 -5 -6 -6 -5 -4 -4 -4 -3 -3 -3 -4 -4 -4 -4 -3 -3 -2 -2 -1 -1 -1 -1 -1 -2 -2 -2 -3 -3 -4 -4 -4 -4 -4 -3 -2 -2 -1 -0 -1 -1 -2 -2 -3 -3 -3 -3 -3 -2 -2 -0 0 1 1 1 0 -0 -1
-2 -2 -2 -2 -3 -3 -3 -3 -3 -4 -4 -4 -4 -4 -4 -4 -4 -3 -3 -3 -3 -4 -4 -4 -3 -2 -3 -5 -6 -6 -6 -7 -8 -8 -8 -8 -7 -6 -6 -6 -6 -6 -6 -4 -4 -4 -4 -5 -5 -5 -4 -3 -3 -4 -4 -4 -4 -4 -4 -4 -3 -2 -1 -1 -0 -0 -1 -1 -2 -2 -2 -3 -3 -3 -4 -4 -4 -4 -3 -3 -3 -2 -2 -1 -0 -0 -1 -1 -2 -2 -3 -3 -3 -3 -2 -1 -0 0 1 1 0 -0 -1
-2 -2 -2 -2 -2 -2 -3 -3 -3 -3 -4 -4 -4 -4 -4 -4 -4 -4 -4 -4 -4 -4 -5 -4 -4 -3 -2 -3 -3 -4 -5 -6 -6 -6 -6 -6 -8 -9 -8 -7 -6 -6 -7 -6 -5 -5 -5 -5 -4 -4 -4 -3 -3 -3 -3 -4 -4 -4 -4 -3 -2 -2 -2 -1 -1 -1 -2 -2 -3 -3 -3 -2 -2 -2 -2 -3 -3 -3 -4 -3 -3 -3 -3 -2 -1 -1 -0 -0 -1 -2 -2 -2 -3 -3 -2 -2 -2 -1 -1 -0 0 -0 -1
-1 -1 -1 -1 -1 -2 -2 -3 -3 -3 -3 -4 -4 -4 -4 -4 -4 -4 -5 -5 -5 -5 -5 -5 -5 -4 -3 -2 -2 -3 -4 -4 -6 -7 -7 -5 -5 -6 -9 -9 -6 -4 -4 -7 -7 -7 -6 -5 -4 -3 -3 -3 -2 -2 -2 -3 -3 -3 -3 -3 -2 -2 -2 -3 -3 -3 -4 -4 -3 -3 -2 -2 -2 -1 -1 -1 -2 -3 -3 -4 -4 -4 -4 -3 -3 -2 -1 -1 -1 -1 -1 -2 -2 -2 -2 -2 -2 -2 -2 -1 -1 -0 -0
-1 -1 -1 -1 -1 -1 -2 -2 -2 -3 -3 -3 -4 -4 -4 -4 -4 -4 -4 -5 -6 -5 -4 -4 -5 -6 -5 -3 -2 -2 -3 -4 -4 -5 -7 -8 -5 -1 1 -2 -5 -5 -4 -6 -7 -7 -6 -4 -3 -2 -2 -2 -2 -2 -2 -2 -2 -2 -2 -3 -3 -3 -4 -4 -5 -5 -5 -5 -4 -3 -3 -2 -2 -1 -1 -1 -1 -2 -2 -3 -4 -4 -4 -4 -4 -3 -2 -2 -1 -1 -1 -1 -1 -1 -1 -1 -1 -1 -2 -2 -2 -1 -1
-1 -1 -1 -1 -1 -1 -1 -2 -2 -2 -2 -3 -3 -3 -3 -4 -4 -4 -4 -4 -5 -5 -4 -3 -4 -5 -6 -5 -4 -3 -3 -4 -4 -3 -2 -6 -10 -11 -6 -3 -4 -5 -7 -7 -7 -7 -5 -3 -2 -2 -2 -2 -2 -2 -2 -2 -2 -2 -2 -3 -5 -6 -5 -6 -6 -6 -5 -5 -5 -4 -4 -4 -3 -3 -2 -2 -2 -2 -2 -2 -3 -4 -4 -4 -4 -4 -4 -3 -2 -2 -1 -1 -0 -0 -0 -0 -1 -1 -2 -2 -2 -2 -2
-1 -1 -1 -1 -1 -1 -1 -1 -2 -2 -2 -2 -2 -2 -3 -3 -3 -4 -4 -4 -4 -4 -5 -3 -2 -2 -5 -5 -5 -4 -3 -4 -5 -6 -5 -4 -8 -15 -21 -16 -10 -5 -2 -2 -4 -6 -6 -3 -1 -1 -2 -2 -3 -2 -2 -2 -2 -4 -5 -5 -6 -7 -7 -6 -5 -5 -5 -5 -5 -5 -5 -5 -5 -5 -5 -4 -4 -3 -2 -2 -2 -3 -3 -4 -4 -5 -4 -4 -4 -3 -3 -2 -1 -1 -1 -1 -1 -2 -2 -3 -3 -3 -2
-1 -1 -1 -1 -1 -1 -1 -1 -2 -2 -2 -2 -2 -2 -2 -3 -3 -4 -4 -4 -4 -4 -5 -5 -4 -2 -1 -3 -3 -3 -3 -2 -3 -5 -8 -5 -3 -3 -9 -13 -14 -12 -7 -3 -2 -3 -6 -1 0 -0 -2 -3 -3 -3 -3 -4 -5 -6 -7 -7 -6 -6 -6 -5 -4 -4 -4 -4 -5 -5 -6 -6 -6 -7 -7 -7 -7 -6 -5 -4 -3 -3 -2 -3 -3 -4 -5 -5 -5 -4 -4 -3 -3 -2 -2 -1 -1 -2 -2 -2 -3 -3 -3
-1 -1 -1 -0 -1 -1 -1 -1 -2 -2 -2 -2 -2 -1 -1 -2 -2 -3 -3 -3 -3 -3 -4 -5 -5 -4 -1 -2 -2 -2 -1 -0 -0 -1 -4 -5 -3 0 2 -6 -12 -16 -21 -25 -17 -7 -2 -0 0 -1 -5 -6 -6 -6 -6 -8 -8 -8 -7 -5 -4 -4 -3 -3 -3 -4 -4 -5 -5 -6 -6 -6 -6 -7 -8 -8 -8 -7 -7 -7 -6 -5 -4 -3 -3 -3 -4 -4 -5 -5 -5 -4 -4 -3 -3 -2 -2 -1 -1 -1 -2 -2 -2
-1 -1 -1 -0 -1 -1 -1 -1 -2 -2 -2 -2 -2 -1 -1 -1 -2 -2 -3 -4 -4 -3 -3 -4 -5 -5 -4 -2 -3 -2 -0 0 1 1 0 -4 -6 -6 -3 -4 -6 -8 -9 -15 -20 -18 -4 -4 -8 -11 -8 -10 -12 -12 -9 -9 -8 -7 -5 -4 -3 -3 -3 -3 -3 -4 -4 -5 -5 -5 -5 -5 -5 -5 -5 -5 -6 -6 -7 -7 -8 -8 -7 -6 -5 -4 -3 -3 -3 -4 -5 -5 -4 -4 -3 -3 -2 -1 -1 -1 -1 -1 -1
-1 -1 -1 -1 -1 -1 -1 -2 -2 -2 -2 -2 -2 -1 -1 -2 -2 -3 -3 -4 -4 -4 -3 -3 -3 -4 -6 -4 -3 -3 -2 -0 0 0 2 0 -4 -7 -7 -4 -2 -1 -0 1 -5 -12 -14 -7 -9 -14 -14 -8 -8 -10 -7 -6 -6 -5 -4 -5 -5 -5 -4 -4 -4 -4 -4 -5 -5 -4 -4 -3 -2 -2 -2 -2 -3 -4 -4 -6 -7 -8 -9 -9 -8 -7 -6 -4 -3 -2 -3 -4 -4 -4 -4 -4 -3 -3 -2 -1 -1 -1 -1
-1 -1 -1 -1 -1 -2 -2 -1 -1 -1 -1 -1 -2 -2 -2 -2 -2 -2 -3 -3 -3 -3 -4 -3 -2 -2 -4 -4 -3 -3 -3 -1 -0 -0 -0 3 2 -0 -2 -4 -7 -8 -5 0 2 -1 -12 -13 -12 -10 -8 -4 -6 -7 -3 -4 -6 -6 -6 -6 -7 -7 -6 -6 -5 -4 -4 -4 -3 -2 -2 -2 -1 -0 -0 -1 -2 -2 -3 -4 -5 -5 -6 -8 -9 -10 -10 -8 -6 -5 -3 -3 -3 -4 -5 -5 -5 -4 -4 -3 -2 -1 -1
-1 -1 -1 -1 -1 -1 -1 -1 -1 -1 -1 -1 -1 -2 -1 -1 -1 -1 -2 -2 -3 -3 -4 -3 -2 -0 -1 -3 -4 -3 -3 -2 0 1 -2 1 3 4 1 0 -1 -4 -9 -8 -6 -5 -5 -8 -15 -18 -11 1 -3 -11 -8 -4 -5 -7 -8 -7 -7 -7 -7 -6 -5 -4 -4 -3 -1 -0 -0 -0 -1 -1 -1 -2 -2 -2 -3 -3 -4 -4 -4 -5 -6 -8 -10 -10 -10 -9 -8 -6 -4 -3 -4 -4 -5 -5 -5 -5 -4 -4 -3
-1 -1 -1 -1 -1 -1 -1 -1 -1 -1 -1 -1 -1 -1 -1 -1 -1 -2 -3 -3 -3 -3 -2 -2 -2 -0 1 -0 -2 -3 -3 -4 -1 1 1 -1 0 2 4 2 2 2 2 -0 -4 -8 -8 1 -0 -10 -27 -6 1 -3 -14 -7 -3 -3 -7 -7 -7 -7 -7 -6 -4 -3 -3 -2 -2 -2 -1 -0 -1 -2 -3 -2 -3 -4 -4 -4 -4 -4 -4 -3 -4 -5 -6 -8 -9 -11 -11 -9 -7 -5 -3 -3 -3 -4 -4 -4 -4 -4 -4
-1 -1 -1 -1 -1 -1 -1 -1 -1 -1 -1 -1 -1 -1 -1 -1 -2 -2 -2 -2 -2 -2 -1 -2 -2 -1 0 1 -0 -2 -2 -3 -3 -2 1 1 0 0 1 2 3 4 4 4 3 -0 -5 -2 3 1 -19 -25 -11 5 2 -8 -8 -5 -3 -5 -7 -7 -6 -4 -3 -2 -2 -2 -3 -3 -3 -2 -2 -3 -4 -3 -4 -4 -5 -4 -4 -3 -3 -2 -2 -3 -3 -4 -5 -7 -9 -10 -10 -8 -5 -3 -2 -2 -2 -3 -4 -4 -4
-0 -1 -1 -1 -1 -1 -1 -1 -1 -1 -1 -1 -1 -1 -2 -1 -1 -1 -2 -2 -2 -2 -2 -1 -1 -1 -1 -0 -0 -1 -2 -2 -2 -2 -3 -1 0 1 0 1 2 3 4 4 5 6 6 2 -1 -2 -0 -16 -28 -24 8 2 -6 -11 -9 -5 -3 -3 -3 -2 -2 -2 -2 -3 -3 -4 -5 -4 -3 -3 -4 -5 -4 -4 -4 -3 -3 -2 -1 -1 -1 -2 -3 -3 -4 -4 -5 -8 -9 -10 -9 -6 -4 -2 -1 -2 -2 -3 -3
0 -0 -1 -1 -1 -1 -1 -1 -1 -1 -1 -1 -1 -1 -2 -1 -1 -1 -2 -1 -1 -1 -1 -1 -1 -1 -1 -0 -0 -1 -2 -2 -1 -0 -2 -4 -3 -0 2 0 -0 -0 -1 -1 1 4 6 6 3 2 4 3 -12 -27 -31 -7 0 -3 -8 -7 -4 -2 1 0 -1 -3 -5 -5 -4 -4 -5 -5 -4 -3 -3 -4 -4 -3 -3 -2 -2 -1 -1 -2 -2 -3 -4 -5 -4 -4 -4 -6 -7 -9 -11 -10 -8 -5 -2 -1 -1 -1 -1
1 0 0 0 0 -0 0 0 0 0 -0 -1 -1 -1 -1 -2 -2 -2 -2 -2 -1 -0 0 -0 -1 -1 -0 -0 0 -0 -1 -2 -2 -0 2 -1 -3 -3 1 1 0 -0 0 0 0 0 1 3 4 6 6 5 2 -5 -21 -23 -14 -3 -3 -2 -3 -4 -2 -3 -4 -5 -5 -5 -4 -3 -3 -3 -3 -2 -2 -2 -2 -3 -3 -3 -3 -2 -3 -4 -4 -4 -6 -6 -6 -5 -5 -5 -6 -7 -8 -11 -11 -10 -6 -3 -0 1 1
Height
1548 1547 1547 1546 1546 1545 1545 1545 1544 1544 1543 1543 1543 1542 1542 1542 1541 1541 1540 1540 1539 1539 1538 1538 1538 1537 1537 1536 1536 1536 1536 1536 1536 1536 1535 1535 1535 1535 1535 1535 1535 1535 1535 1536 1537 1537 1537 1538 1538 1538 1538 1538 1539 1539 1538 1538 1538 1539 1540 1540 1541 1541 1540 1540 1539 1539 1539 1541 1542 1542 1543 1543 1542 1542 1542 1542 1542 1542 1542 1542 1542 1543 1543 1543 1543 1544 1544 1545 1545 1545 1546 1547 1547 1547 1548 1548 1548 1548 1548 1549 1549 1549 1549
1548 1548 1547 1547 1546 1546 1545 1545 1544 1544 1544 1543 1543 1543 1542 1542 1541 1541 1540 1540 1539 1539 1538 1538 1538 1537 1537 1537 1536 1536 1536 1536 1536 1536 1535 1535 1535 1535 1534 1534 1534 1535 1535 1536 1536 1537 1537 1537 1537 1538 1538 1538 1538 1538 1538 1538 1538 1538 1539 1539 1539 1540 1540 1539 1539 1539 1539 1540 1541 1542 1542 1542 1542 1542 1542 1542 1542 1542 1542 1542 1542 1542 1543 1543 1543 1543 1544 1544 1545 1545 1545 1546 1547 1547 1547 1548 1548 1548 1548 1548 1549 1549 1549
1548 1548 1547 1547 1546 1546 1546 1545 1545 1544 1544 1543 1543 1543 1543 1542 1542 1541 1541 1540 1540 1539 1539 1538 1538 1538 1537 1537 1537 1536 1536 1536 1536 1536 1535 1535 1535 1534 1534 1534 1534 1534 1535 1535 1536 1536 1537 1537 1537 1537 1537 1538 1538 1538 1538 1537 1537 1538 1538 1538 1538 1538 1539 1539 1539 1538 1538 1538 1540 1542 1542 1541 1541 1542 1542 1542 1542 1542 1542 1542 1542 1542 1542 1542 1543 1543 1543 1544 1544 1544 1544 1545 1546 1548 1547 1547 1548 1548 1548 1548 1548 1548 1548
1549 1548 1548 1547 1547 1546 1546 1545 1545 1545 1544 1544 1543 1543 1543 1542 1542 1541 1541 1541 1540 1540 1539 1539 1538 1538 1537 1537 1537 1536 1536 1536 1536 1536 1535 1535 1535 1534 1534 1534 1533 1534 1534 1535 1535 1536 1536 1537 1537 1537 1537 1537 1538 1537 1537 1537 1536 1537 1537 1538 1538 1538 1538 1539 1539 1538 1537 1537 1538 1541 1543 1541 1541 1541 1542 1542 1541 1541 1542 1542 1542 1542 1542 1542 1542 1542 1543 1543 1543 1543 1543 1544 1545 1546 1547 1547 1547 1548 1548 1548 1548 1548 1548
1549 1549 1548 1548 1547 1547 1546 1546 1545 1545 1545 1544 1544 1543 1543 1543 1542 1542 1541 1541 1540 1540 1539 1539 1538 1538 1538 1537 1537 1537 1536 1536 1536 1536 1535 1535 1535 1534 1534 1533 1533 1533 1534 1534 1535 1535 1536 1537 1537 1537 1537 1537 1537 1537 1537 1536 1536 1536 1536 1537 1537 1537 1538 1538 1538 1538 1538 1538 1538 1539 1541 1541 1540 1540 1541 1541 1541 1541 1541 1542 1542 1541 1541 1541 1542 1542 1542 1543 1543 1543 1543 1543 1544 1545 1545 1546 1546 1547 1548 1548 1548 1548 1548
1550 1550 1549 1548 1548 1547 1547 1546 1546 1546 1545 1545 1544 1544 1543 1543 1543 1542 1542 1541 1541 1540 1540 1539 1539 1538 1538 1538 1537 1537 1536 1536 1536 1535 1535 1535 1534 1534 1534 1533 1533 1533 1534 1534 1534 1535 1536 1536 1536 1537 1537 1538 1537 1537 1537 1536 1536 1536 1536 1536 1537 1537 1538 1537 1537 1538 1538 1538 1537 1538 1539 1540 1540 1540 1540 1540 1540 1540 1540 1541 1541 1542 1541 1541 1541 1541 1542 1542 1543 1543 1543 1543 1544 1544 1545 1545 1546 1546 1547 1548 1548 1548 1548
1551 1551 1550 1549 1549 1548 1548 1547 1547 1546 1546 1545 1545 1544 1544 1543 1543 1543 1542 1542 1541 1541 1540 1540 1539 1539 1538 1538 1538 1537 1536 1536 1536 1535 1535 1535 1535 1534 1534 1533 1533 1533 1533 1534 1534 1535 1535 1536 1536 1537 1537 1538 1538 1537 1536 1536 1536 1535 1535 1535 1536 1537 1538 1537 1537 1538 1538 1538 1538 1538 1539 1541 1542 1541 1540 1539 1539 1539 1539 1540 1540 1541 1541 1541 1541 1541 1541 1542 1542 1542 1543 1543 1543 1544 1545 1545 1546 1546 1547 1547 1547 1547 1547
1552 1551 1551 1550 1549 1549 1548 1548 1547 1547 1546 1546 1545 1545 1544 1544 1544 1543 1543 1542 1542 1541 1541 1540 1540 1539 1539 1538 1538 1537 1537 1536 1536 1536 1535 1535 1535 1534 1534 1534 1533 1533 1533 1534 1534 1535 1535 1536 1536 1536 1536 1537 1538 1537 1536 1535 1535 1535 1535 1535 1536 1536 1536 1537 1537 1538 1538 1539 1539 1539 1539 1540 1542 1542 1541 1539 1538 1538 1538 1538 1539 1540 1540 1540 1540 1540 1540 1541 1541 1542 1542 1543 1543 1544 1544 1545 1545 1546 1547 1547 1547 1547 1547
1553 1552 1551 1551 1550 1550 1549 1548 1548 1548 1547 1547 1546 1545 1545 1545 1544 1544 1543 1543 1542 1542 1541 1541 1540 1540 1539 1539 1538 1538 1537 1537 1536 1536 1536 1535 1535 1534 1534 1534 1534 1534 1533 1534 1534 1534 1535 1535 1536 1536 1536 1537 1537 1537 1536 1535 1534 1534 1534 1535 1535 1535 1535 1536 1536 1537 1538 1539 1539 1539 1539 1539 1540 1540 1539 1538 1537 1537 1537 1538 1538 1538 1539 1540 1540 1540 1540 1540 1541 1541 1542 1542 1543 1543 1544 1544 1544 1545 1546 1547 1546 1546 1547
1553 1553 1552 1552 1551 1550 1550 1549 1549 1548 1548 1547 1547 1546 1546 1545 1545 1544 1544 1543 1543 1542 1542 1541 1541 1540 1540 1539 1538 1538 1538 1537 1537 1536 1536 1535 1535 1535 1534 1534 1534 1534 1534 1534 1534 1534 1535 1535 1536 1536 1536 1536 1537 1537 1536 1535 1534 1533 1533 1534 1534 1534 1534 1535 1535 1536 1537 1538 1538 1539 1539 1539 1539 1538 1537 1537 1536 1536 1536 1537 1537 1537 1538 1539 1539 1539 1539 1539 1540 1540 1541 1541 1542 1543 1543 1543 1543 1543 1544 1546 1546 1546 1546
1554 1553 1553 1552 1552 1551 1551 1550 1550 1549 1549 1548 1548 1547 1546 1546 1545 1545 1544 1544 1543 1543 1542 1542 1541 1541 1540 1540 1539 1538 1538 1538 1537 1537 1536 1536 1535 1535 1535 1534 1534 1534 1534 1534 1534 1534 1534 1535 1535 1535 1535 1535 1536 1536 1536 1535 1534 1533 1533 1533 1533 1533 1534 1534 1534 1535 1535 1536 1537 1538 1538 1538 1538 1537 1536 1536 1535 1535 1535 1536 1536 1537 1537 1538 1538 1539 1539 1539 1539 1539 1540 1541 1541 1542 1542 1543 1543 1543 1543 1544 1546 1546 1546
1554 1554 1553 1553 1553 1552 1552 1551 1551 1550 1549 1549 1548 1548 1547 1547 1546 1546 1545 1544 1544 1543 1543 1543 1542 1541 1541 1540 1540 1539 1538 1538 1538 1537 1537 1536 1536 1535 1535 1534 1534 1534 1534 1534 1534 1534 1534 1534 1535 1535 1535 1535 1535 1535 1535 1534 1533 1533 1533 1533 1533 1533 1533 1533 1534 1534 1535 1535 1535 1536 1536 1536 1536 1535 1535 1534 1534 1534 1535 1535 1536 1536 1536 1537 1537 1538 1538 1538 1538 1539 1539 1540 1540 1541 1541 1542 1543 1543 1543 1543 1544 1545 1546
1555 1554 1554 1553 1553 1553 1552 1552 1551 1551 1550 1550 1549 1549 1548 1548 1547 1546 1546 1545 1545 1544 1544 1543 1543 1542 1542 1541 1540 1540 1539 1539 1538 1538 1537 1537 1536 1536 1535 1535 1535 1534 1534 1534 1534 1534 1534 1534 1534 1534 1535 1535 1535 1534 1534 1533 1533 1533 1533 1533 1533 1533 1533 1533 1533 1534 1534 1534 1534 1534 1534 1534 1533 1533 1533 1533 1533 1534 1534 1534 1535 1536 1536 1536 1536 1537 1537 1538 1538 1538 1538 1539 1539 1540 1541 1541 1542 1542 1542 1542 1543 1543 1544
1555 1555 1554 1554 1553 1553 1553 1552 1552 1552 1551 1550 1550 1549 1549 1548 1548 1547 1547 1546 1546 1545 1545 1544 1543 1543 1542 1542 1541 1541 1540 1539 1539 1538 1538 1537 1537 1536 1536 1535 1535 1535 1534 1534 1534 1534 1534 1534 1534 1534 1534 1535 1535 1534 1534 1533 1533 1533 1533 1533 1533 1533 1533 1533 1534 1534 1534 1534 1534 1533 1533 1533 1532 1532 1532 1532 1533 1533 1533 1534 1534 1535 1535 1536 1536 1535 1536 1537 1537 1538 1538 1538 1538 1539 1540 1540 1541 1541 1541 1542 1542 1542 1543
1556 1555 1555 1554 1554 1554 1553 1553 1553 1552 1552 1551 1551 1550 1550 1549 1548 1548 1548 1547 1547 1546 1545 1545 1544 1544 1543 1543 1542 1541 1541 1540 1539 1539 1538 1538 1537 1537 1536 1536 1536 1535 1535 1535 1534 1534 1534 1534 1534 1534 1534 1535 1535 1534 1534 1534 1534 1534 1534 1534 1533 1533 1533 1533 1534 1534 1534 1534 1534 1533 1533 1532 1532 1532 1531 1532 1532 1533 1533 1533 1534 1534 1535 1535 1535 1535 1535 1535 1536 1537 1538 1538 1538 1538 1539 1539 1540 1540 1540 1541 1541 1542 1542
1556 1556 1555 1555 1555 1554 1554 1553 1553 1553 1552 1552 1551 1551 1550 1550 1549 1548 1548 1548 1547 1547 1546 1546 1545 1544 1544 1543 1543 1542 1541 1541 1540 1539 1539 1538 1538 1537 1537 1536 1536 1536 1535 1535 1535 1534 1534 1534 1534 1534 1534 1534 1534 1534 1534 1534 1534 1534 1534 1534 1533 1533 1533 1533 1533 1533 1534 1534 1534 1534 1533 1533 1532 1532 1532 1532 1532 1532 1533 1533 1533 1534 1534 1534 1534 1534 1534 1534 1535 1535 1536 1537 1538 1538 1538 1538 1539 1539 1539 1540 1540 1541 1541
1557 1556 1556 1556 1555 1555 1554 1554 1553 1553 1553 1552 1552 1551 1551 1550 1550 1549 1549 1548 1548 1547 1547 1546 1546 1545 1545 1544 1543 1543 1542 1541 1540 1540 1539 1539 1538 1538 1537 1537 1536 1536 1536 1535 1535 1535 1534 1534 1534 1534 1534 1534 1534 1534 1534 1533 1533 1533 1533 1533 1533 1533 1532 1532 1533 1533 1533 1534 1534 1533 1533 1533 1532 1532 1532 1532 1532 1532 1532 1532 1533 1533 1533 1534 1534 1533 1533 1534 1534 1534 1534 1535 1536 1537 1538 1538 1538 1538 1538 1539 1539 1540 1540
1557 1557 1557 1556 1556 1555 1555 1554 1554 1554 1553 1553 1552 1552 1552 1551 1550 1550 1549 1549 1548 1548 1548 1547 1547 1546 1545 1545 1544 1543 1542 1542 1541 1540 1540 1539 1539 1538 1538 1537 1537 1536 1536 1535 1535 1535 1535 1534 1534 1534 1534 1534 1533 1533 1533 1533 1533 1533 1533 1533 1533 1532 1532 1532 1532 1532 1532 1533 1533 1532 1532 1532 1532 1532 1531 1531 1531 1532 1532 1532 1532 1532 1533 1533 1533 1533 1533 1533 1533 1533 1533 1533 1534 1535 1536 1537 1537 1537 1537 1538 1538 1538 1538
1558 1558 1557 1557 1556 1556 1555 1555 1555 1554 1554 1553 1553 1553 1552 1552 1551 1550 1550 1549 1549 1548 1548 1548 1547 1546 1546 1545 1544 1543 1543 1542 1541 1541 1540 1540 1539 1538 1538 1538 1537 1537 1536 1536 1535 1535 1535 1534 1534 1534 1534 1533 1533 1533 1533 1533 1532 1532 1532 1532 1532 1532 1532 1532 1531 1531 1531 1531 1531 1531 1531 1531 1531 1531 1531 1531 1531 1531 1531 1531 1531 1532 1532 1532 1532 1532 1533 1533 1533 1533 1533 1533 1533 1533 1534 1534 1536 1536 1536 1536 1537 1537 1537
1558 1558 1558 1557 1557 1556 1556 1555 1555 1555 1554 1554 1553 1553 1553 1552 1551 1551 1550 1550 1549 1549 1548 1548 1547 1547 1546 1545 1544 1544 1543 1543 1542 1541 1541 1540 1539 1539 1538 1538 1537 1537 1536 1536 1536 1535 1535 1534 1534 1534 1533 1533 1533 1533 1532 1532 1532 1532 1531 1531 1531 1531 1531 1531 1531 1530 1530 1530 1530 1530 1530 1530 1530 1530 1530 1531 1531 1531 1531 1531 1531 1530 1531 1531 1531 1531 1532 1533 1533 1533 1533 1533 1533 1533 1532 1533 1533 1534 1534 1535 1535 1535 1536
1559 1558 1558 1558 1557 1557 1556 1556 1555 1555 1554 1554 1553 1553 1553 1552 1552 1551 1550 1550 1549 1549 1548 1548 1548 1547 1546 1545 1545 1544 1543 1543 1542 1542 1541 1540 1540 1539 1538 1538 1538 1537 1537 1536 1536 1535 1535 1535 1534 1534 1533 1533 1533 1533 1532 1532 1531 1531 1531 1531 1530 1530 1530 1530 1530 1530 1529 1529 1529 1529 1529 1529 1529 1529 1529 1530 1530 1530 1530 1530 1530 1530 1529 1530 1530 1530 1530 1531 1532 1533 1532 1532 1532 1532 1532 1532 1531 1532 1532 1533 1534 1534 1534
1559 1559 1558 1558 1557 1557 1556 1556 1555 1555 1554 1554 1553 1553 1552 1552 1551 1551 1550 1550 1549 1549 1548 1548 1547 1547 1546 1545 1545 1544 1543 1543 1543 1542 1542 1541 1540 1539 1539 1538 1538 1537 1537 1537 1536 1536 1535 1535 1534 1534 1533 1533 1533 1533 1532 1532 1531 1531 1530 1530 1530 1529 1529 1529 1529 1529 1529 1528 1528 1528 1528 1528 1528 1528 1528 1528 1529 1529 1529 1529 1529 1529 1528 1528 1528 1529 1529 1529 1530 1531 1532 1532 1532 1531 1532 1531 1531 1531 1531 1531 1532 1532 1533
1559 1559 1558 1558 1558 1557 1557 1556 1556 1555 1555 1554 1553 1553 1552 1552 1551 1551 1550 1549 1549 1548 1548 1548 1547 1546 1546 1545 1545 1544 1543 1543 1543 1542 1542 1541 1540 1540 1539 1538 1538 1538 1537 1537 1536 1536 1535 1535 1534 1534 1533 1533 1533 1532 1532 1531 1531 1530 1530 1529 1529 1529 1528 1528 1528 1528 1528 1528 1528 1528 1527 1527 1527 1527 1527 1527 1528 1528 1528 1528 1528 1528 1528 1528 1527 1527 1528 1528 1528 1528 1529 1530 1531 1531 1530 1530 1530 1530 1530 1530 1530 1530 1531
1559 1559 1558 1558 1558 1557 1557 1556 1556 1555 1555 1554 1553 1553 1552 1552 1551 1551 1550 1549 1549 1548 1548 1547 1546 1546 1546 1545 1545 1544 1543 1543 1543 1542 1542 1541 1541 1540 1539 1539 1538 1538 1537 1537 1536 1535 1535 1534 1534 1534 1533 1533 1533 1532 1532 1531 1531 1530 1530 1529 1529 1528 1528 1528 1528 1527 1527 1527 1527 1527 1526 1526 1526 1526 1526 1526 1526 1526 1526 1526 1527 1527 1527 1527 1526 1526 1526 1527 1527 1527 1527 1527 1528 1529 1530 1529 1529 1529 1529 1529 1529 1529 1529
1559 1559 1558 1558 1557 1557 1557 1556 1555 1555 1554 1554 1553 1553 1552 1552 1551 1550 1550 1549 1548 1548 1547 1547 1546 1546 1545 1545 1544 1544 1543 1543 1543 1542 1541 1541 1540 1540 1539 1539 1538 1538 1537 1537 1536 1535 1535 1534 1534 1533 1533 1533 1532 1532 1532 1531 1531 1530 1529 1529 1528 1528 1528 1527 1527 1526 1526 1526 1526 1526 1525 1525 1525 1525 1525 1525 1525 1525 1525 1525 1525 1525 1525 1525 1525 1525 1525 1525 1525 1526 1526 1526 1526 1526 1527 1528 1528 1528 1528 1528 1528 1528 1528
1559 1559 1558 1558 1557 1557 1556 1556 1555 1555 1554 1553 1553 1552 1552 1551 1551 1550 1549 1549 1548 1548 1547 1547 1546 1546 1545 1544 1544 1543 1543 1543 1542 1542 1541 1541 1540 1539 1539 1538 1538 1538 1537 1536 1536 1535 1535 1534 1533 1533 1532 1532 1532 1531 1531 1531 1530 1530 1529 1528 1528 1528 1527 1527 1526 1526 1525 1525 1525 1525 1524 1524 1524 1524 1524 1524 1523 1523 1524 1524 1524 1524 1524 1524 1524 1524 1524 1524 1524 1524 1525 1525 1525 1524 1524 1525 1526 1527 1526 1526 1526 1527 1527
1559 1558 1558 1558 1557 1557 1556 1555 1555 1554 1554 1553 1553 1552 1552 1551 1550 1550 1549 1548 1548 1547 1547 1546 1546 1545 1545 1544 1543 1543 1543 1542 1542 1541 1541 1540 1539 1539 1538 1538 1538 1537 1537 1536 1536 1535 1534 1534 1533 1533 1532 1531 1531 1531 1530 1530 1530 1529 1528 1528 1528 1527 1527 1526 1526 1525 1525 1524 1524 1524 1524 1523 1523 1523 1523 1523 1523 1523 1522 1522 1522 1522 1522 1523 1523 1523 1523 1523 1523 1523 1523 1523 1523 1523 1523 1523 1524 1524 1525 1525 1525 1525 1525
1559 1558 1558 1558 1557 1557 1556 1555 1555 1554 1554 1553 1553 1552 1551 1550 1550 1549 1548 1548 1547 1547 1546 1546 1545 1545 1544 1543 1543 1543 1542 1542 1541 1541 1540 1539 1539 1538 1538 1537 1537 1536 1536 1535 1535 1534 1534 1533 1533 1532 1532 1531 1530 1530 1529 1529 1529 1528 1528 1528 1527 1527 1526 1526 1525 1525 1524 1524 1523 1523 1523 1523 1522 1522 1522 1522 1522 1521 1521 1521 1521 1521 1521 1521 1521 1521 1521 1522 1522 1522 1522 1522 1522 1522 1522 1522 1522 1522 1523 1524 1524 1524 1524
1559 1558 1558 1558 1557 1557 1556 1555 1555 1554 1554 1553 1552 1552 1551 1550 1549 1549 1548 1547 1547 1546 1546 1545 1544 1544 1543 1543 1542 1542 1541 1541 1540 1540 1539 1539 1538 1538 1537 1537 1536 1536 1535 1535 1534 1534 1533 1533 1532 1532 1531 1530 1530 1529 1528 1528 1528 1528 1527 1527 1526 1526 1525 1525 1524 1524 1524 1523 1523 1523 1522 1522 1521 1521 1521 1521 1521 1520 1520 1520 1520 1520 1520 1520 1520 1520 1520 1520 1520 1520 1521 1521 1521 1521 1521 1521 1521 1521 1521 1521 1523 1523 1523
1559 1558 1558 1558 1557 1557 1556 1555 1555 1554 1554 1553 1552 1552 1551 1550 1549 1548 1548 1547 1546 1546 1545 1545 1544 1543 1543 1542 1541 1541 1540 1540 1539 1539 1539 1538 1538 1537 1537 1536 1536 1535 1534 1534 1533 1533 1532 1532 1531 1531 1530 1529 1529 1528 1528 1528 1527 1527 1526 1526 1525 1525 1524 1524 1523 1523 1523 1523 1522 1522 1521 1521 1521 1520 1520 1520 1520 1519 1519 1519 1519 1518 1518 1518 1518 1518 1518 1518 1519 1519 1519 1519 1520 1520 1519 1519 1519 1519 1520 1520 1520 1520 1521
1559 1558 1558 1558 1557 1557 1556 1555 1555 1554 1554 1553 1553 1552 1551 1550 1549 1548 1548 1547 1546 1546 1545 1544 1543 1543 1542 1541 1541 1540 1539 1539 1539 1538 1538 1537 1537 1536 1536 1535 1535 1534 1534 1533 1533 1532 1531 1531 1530 1530 1529 1528 1528 1528 1527 1526 1526 1526 1525 1525 1524 1524 1523 1523 1523 1522 1522 1522 1521 1521 1521 1520 1520 1519 1519 1519 1518 1518 1518 1518 1517 1517 1517 1517 1517 1517 1517 1517 1517 1517 1518 1518 1518 1518 1518 1518 1518 1518 1518 1518 1518 1518 1519
1559 1558 1558 1558 1557 1557 1556 1555 1555 1554 1554 1553 1553 1552 1551 1550 1549 1548 1548 1547 1546 1546 1545 1544 1543 1543 1542 1541 1540 1540 1539 1538 1538 1538 1537 1536 1536 1535 1535 1535 1534 1534 1533 1533 1532 1531 1531 1530 1529 1528 1528 1528 1527 1526 1526 1525 1525 1525 1524 1524 1523 1523 1522 1522 1522 1521 1521 1521 1520 1520 1520 1519 1519 1518 1518 1518 1517 1517 1516 1516 1516 1516 1516 1516 1515 1515 1515 1515 1515 1515 1516 1516 1516 1516 1517 1517 1517 1517 1516 1516 1516 1517 1517
1559 1558 1558 1557 1557 1556 1556 1555 1555 1554 1553 1553 1552 1552 1551 1550 1549 1549 1548 1547 1547 1546 1545 1544 1543 1543 1542 1541 1540 1540 1539 1538 1538 1537 1536 1536 1535 1535 1534 1534 1533 1533 1532 1532 1531 1530 1530 1529 1528 1528 1527 1526 1526 1525 1525 1524 1524 1523 1523 1523 1522 1522 1521 1521 1520 1520 1520 1519 1519 1519 1519 1518 1518 1518 1517 1517 1516 1516 1515 1515 1514 1514 1514 1514 1514 1514 1514 1514 1514 1514 1514 1514 1514 1514 1514 1515 1515 1515 1515 1514 1514 1515 1515
1558 1558 1558 1557 1557 1556 1556 1555 1554 1554 1553 1553 1552 1551 1551 1550 1549 1549 1548 1548 1547 1546 1546 1545 1544 1543 1542 1541 1540 1540 1539 1538 1538 1537 1536 1535 1535 1534 1533 1533 1533 1532 1531 1531 1530 1529 1529 1528 1528 1527 1526 1525 1525 1524 1523 1523 1522 1522 1522 1521 1521 1521 1520 1520 1519 1519 1519 1518 1518 1518 1518 1517 1517 1517 1516 1515 1515 1514 1514 1514 1513 1513 1513 1513 1513 1512 1512 1512 1512 1512 1512 1512 1512 1512 1512 1513 1513 1513 1513 1513 1513 1513 1513
1558 1558 1558 1557 1557 1556 1556 1555 1554 1554 1553 1553 1552 1551 1550 1550 1549 1548 1548 1547 1547 1546 1545 1544 1544 1543 1542 1541 1540 1540 1539 1538 1537 1536 1536 1535 1534 1533 1533 1532 1532 1531 1530 1530 1529 1528 1528 1527 1526 1526 1525 1524 1524 1523 1522 1521 1521 1520 1520 1520 1520 1520 1519 1519 1519 1518 1518 1518 1518 1517 1517 1517 1516 1516 1515 1514 1514 1513 1513 1513 1512 1512 1512 1511 1511 1511 1511 1511 1510 1510 1510 1510 1510 1510 1510 1510 1510 1511 1511 1511 1511 1511 1511
1558 1558 1557 1557 1556 1556 1555 1555 1554 1553 1553 1552 1551 1551 1550 1549 1549 1548 1548 1547 1546 1545 1545 1544 1543 1542 1542 1541 1540 1539 1538 1538 1537 1536 1535 1534 1533 1533 1532 1531 1531 1530 1529 1528 1528 1527 1527 1526 1525 1524 1524 1523 1522 1522 1521 1520 1520 1519 1519 1519 1519 1519 1518 1518 1518 1518 1518 1517 1517 1516 1516 1515 1515 1514 1514 1513 1513 1512 1512 1512 1511 1511 1511 1510 1510 1509 1509 1509 1508 1508 1508 1508 1508 1508 1508 1508 1508 1508 1508 1508 1509 1509 1509
1558 1557 1557 1556 1556 1555 1555 1554 1554 1553 1553 1552 1551 1550 1550 1549 1548 1548 1547 1546 1546 1545 1544 1543 1543 1542 1541 1540 1539 1538 1538 1537 1536 1535 1534 1533 1533 1532 1531 1530 1530 1529 1528 1528 1527 1526 1525 1524 1524 1523 1522 1522 1521 1520 1520 1519 1518 1518 1518 1518 1518 1518 1518 1517 1517 1516 1516 1515 1515 1515 1514 1514 1513 1513 1513 1512 1512 1511 1511 1511 1510 1510 1509 1509 1508 1508 1508 1507 1507 1507 1507 1507 1507 1507 1507 1506 1506 1506 1506 1506 1506 1507 1507
1557 1557 1556 1556 1555 1555 1554 1554 1553 1553 1552 1551 1551 1550 1549 1549 1548 1547 1547 1546 1545 1544 1543 1543 1542 1541 1540 1539 1538 1538 1537 1536 1535 1534 1533 1532 1532 1531 1530 1529 1529 1528 1528 1527 1526 1525 1524 1523 1523 1522 1521 1520 1519 1519 1518 1518 1518 1518 1517 1517 1517 1517 1516 1516 1515 1514 1514 1513 1513 1513 1513 1512 1512 1511 1511 1511 1510 1510 1509 1509 1509 1508 1508 1508 1507 1507 1506 1506 1505 1505 1505 1505 1505 1505 1505 1505 1505 1505 1504 1504 1504 1504 1505
1557 1556 1556 1555 1555 1554 1554 1553 1553 1552 1552 1551 1550 1549 1549 1548 1548 1547 1546 1545 1544 1543 1543 1542 1541 1540 1540 1539 1538 1537 1536 1535 1534 1533 1532 1531 1530 1530 1529 1528 1528 1527 1526 1526 1525 1524 1523 1522 1521 1520 1519 1519 1518 1518 1517 1517 1517 1517 1516 1516 1516 1515 1515 1514 1513 1513 1512 1512 1511 1511 1511 1510 1510 1510 1510 1509 1509 1509 1508 1508 1508 1507 1507 1506 1506 1505 1505 1504 1504 1503 1503 1503 1503 1503 1503 1503 1503 1503 1503 1503 1503 1503 1503
1556 1556 1555 1555 1554 1554 1553 1553 1552 1552 1551 1550 1549 1549 1548 1547 1547 1546 1545 1545 1544 1543 1542 1541 1540 1539 1539 1538 1537 1536 1535 1534 1533 1532 1531 1530 1529 1529 1528 1528 1527 1526 1525 1524 1523 1523 1522 1521 1520 1519 1518 1518 1517 1517 1516 1516 1516 1515 1515 1515 1514 1514 1513 1513 1512 1511 1511 1510 1510 1509 1509 1509 1508 1508 1508 1508 1508 1507 1507 1507 1506 1506 1505 1505 1504 1504 1503 1503 1503 1502 1502 1502 1501 1501 1501 1501 1501 1501 1501 1501 1501 1501 1501
1556 1555 1555 1554 1554 1553 1553 1552 1552 1551 1550 1549 1549 1548 1547 1547 1546 1545 1545 1544 1543 1542 1542 1541 1539 1538 1538 1537 1536 1535 1534 1533 1532 1531 1530 1529 1528 1528 1527 1527 1526 1525 1524 1523 1522 1521 1520 1520 1519 1518 1517 1517 1516 1515 1515 1515 1514 1514 1513 1513 1512 1512 1511 1511 1510 1510 1509 1509 1508 1508 1508 1507 1507 1507 1506 1506 1505 1505 1505 1505 1505 1504 1504 1503 1503 1502 1502 1502 1501 1501 1500 1500 1500 1499 1499 1499 1499 1499 1499 1499 1499 1499 1499
1555 1555 1554 1554 1553 1553 1552 1552 1551 1550 1549 1549 1548 1547 1547 1546 1545 1544 1544 1543 1542 1542 1541 1540 1539 1538 1537 1536 1534 1533 1533 1532 1531 1530 1529 1528 1528 1527 1526 1525 1524 1523 1522 1521 1520 1520 1519 1518 1517 1517 1516 1515 1515 1514 1514 1513 1513 1512 1512 1511 1511 1510 1509 1509 1508 1508 1508 1508 1507 1507 1506 1506 1505 1504 1504 1503 1503 1503 1503 1503 1503 1503 1503 1502 1501 1501 1500 1500 1500 1499 1499 1498 1498 1498 1497 1497 1497 1497 1497 1498 1498 1497 1497
1554 1554 1554 1553 1553 1552 1552 1551 1551 1550 1549 1548 1547 1547 1546 1545 1544 1543 1543 1542 1541 1541 1540 1539 1538 1537 1536 1534 1533 1532 1531 1530 1529 1529 1528 1527 1526 1525 1525 1524 1523 1522 1521 1520 1519 1518 1518 1517 1516 1515 1514 1514 1513 1513 1513 1512 1512 1511 1510 1510 1509 1508 1508 1508 1507 1507 1507 1506 1506 1505 1504 1504 1503 1503 1502 1501 1501 1501 1501 1501 1501 1501 1501 1500 1500 1499 1499 1498 1498 1498 1497 1497 1497 1496 1496 1495 1495 1495 1495 1495 1495 1495 1495
1554 1553 1553 1553 1552 1552 1551 1551 1550 1549 1548 1548 1547 1546 1545 1544 1543 1543 1542 1541 1540 1539 1538 1538 1537 1536 1535 1533 1532 1531 1530 1529 1528 1527 1526 1526 1525 1524 1523 1522 1521 1520 1519 1518 1518 1517 1516 1515 1514 1513 1513 1512 1512 1512 1511 1511 1510 1510 1509 1508 1508 1508 1507 1507 1507 1506 1505 1505 1504 1503 1503 1502 1501 1500 1500 1499 1499 1499 1498 1498 1498 1498 1499 1499 1498 1498 1498 1497 1497 1496 1496 1495 1495 1494 1494 1494 1493 1493 1493 1493 1493 1493 1493
1553 1553 1552 1552 1551 1551 1550 1550 1549 1548 1548 1547 1546 1545 1544 1544 1543 1542 1541 1540 1539 1538 1538 1537 1536 1535 1534 1533 1531 1530 1529 1528 1527 1526 1525 1524 1523 1522 1521 1520 1519 1518 1518 1517 1517 1516 1515 1514 1513 1512 1511 1511 1511 1510 1510 1509 1509 1508 1508 1508 1508 1507 1507 1506 1506 1505 1504 1503 1502 1501 1500 1500 1499 1498 1498 1498 1497 1497 1497 1496 1496 1496 1496 1496 1496 1496 1496 1496 1495 1494 1494 1493 1493 1493 1493 1492 1492 1492 1491 1491 1491 1491 1491
1552 1552 1551 1551 1550 1550 1549 1549 1548 1548 1547 1546 1545 1545 1544 1543 1542 1541 1540 1539 1538 1538 1536 1535 1535 1534 1533 1532 1531 1529 1528 1527 1526 1524 1523 1522 1521 1520 1519 1518 1518 1517 1516 1515 1515 1514 1513 1513 1511 1511 1510 1510 1509 1509 1508 1508 1508 1507 1507 1507 1507 1506 1506 1505 1504 1503 1503 1501 1500 1499 1498 1498 1498 1497 1497 1496 1496 1495 1495 1494 1494 1494 1493 1493 1494 1494 1494 1494 1493 1493 1492 1492 1491 1491 1491 1490 1490 1490 1489 1489 1489 1488 1488
1551 1551 1550 1550 1549 1549 1548 1548 1547 1547 1546 1545 1544 1544 1543 1542 1541 1540 1539 1538 1537 1536 1535 1534 1533 1533 1532 1531 1530 1528 1527 1526 1524 1523 1522 1520 1519 1518 1517 1516 1516 1515 1514 1513 1513 1512 1512 1511 1510 1509 1509 1508 1508 1508 1508 1507 1507 1507 1506 1506 1505 1505 1504 1503 1503 1502 1500 1499 1499 1498 1497 1497 1496 1496 1495 1494 1494 1493 1493 1492 1492 1491 1491 1491 1491 1491 1491 1491 1491 1491 1491 1490 1490 1489 1489 1488 1488 1488 1487 1487 1486 1486 1486
1550 1550 1549 1549 1548 1548 1547 1547 1546 1545 1545 1544 1543 1543 1542 1541 1540 1539 1538 1537 1536 1535 1534 1533 1532 1531 1530 1529 1528 1528 1526 1525 1523 1522 1520 1518 1517 1517 1516 1515 1514 1513 1513 1512 1511 1511 1511 1510 1509 1508 1508 1508 1507 1507 1507 1506 1506 1506 1505 1504 1503 1503 1502 1501 1500 1499 1498 1498 1497 1497 1496 1495 1495 1494 1493 1493 1492 1491 1490 1490 1489 1489 1489 1488 1488 1488 1488 1488 1488 1489 1489 1488 1488 1488 1487 1487 1486 1486 1485 1485 1484 1484 1484
1549 1548 1548 1548 1547 1547 1546 1545 1545 1544 1544 1543 1542 1542 1541 1540 1539 1538 1537 1536 1535 1534 1533 1532 1531 1530 1529 1528 1527 1526 1525 1524 1523 1521 1519 1517 1515 1513 1513 1512 1512 1511 1510 1510 1510 1510 1509 1509 1508 1508 1507 1507 1507 1506 1506 1506 1505 1504 1503 1503 1501 1500 1499 1498 1498 1497 1496 1496 1495 1495 1494 1494 1493 1492 1492 1491 1490 1489 1489 1488 1487 1487 1486 1486 1486 1486 1486 1485 1485 1486 1486 1486 1486 1486 1486 1485 1484 1484 1483 1483 1482 1482 1481
1548 1547 1547 1546 1546 1545 1545 1544 1544 1543 1543 1542 1541 1541 1540 1539 1538 1537 1536 1535 1534 1533 1532 1531 1530 1529 1528 1527 1526 1525 1524 1523 1521 1520 1518 1517 1514 1512 1509 1508 1508 1508 1508 1508 1508 1508 1508 1508 1507 1507 1506 1506 1506 1505 1505 1505 1504 1503 1501 1500 1499 1498 1497 1496 1495 1495 1494 1494 1493 1493 1492 1492 1491 1490 1490 1489 1488 1488 1487 1486 1485 1485 1484 1484 1483 1483 1483 1483 1483 1483 1483 1483 1483 1483 1483 1483 1483 1482 1481 1480 1480 1479 1479
1547 1546 1546 1545 1545 1544 1544 1543 1543 1542 1541 1541 1540 1539 1538 1538 1537 1536 1535 1534 1533 1532 1531 1530 1529 1528 1527 1526 1525 1524 1523 1522 1521 1519 1518 1516 1515 1513 1511 1508 1505 1504 1505 1505 1506 1506 1507 1507 1507 1506 1505 1505 1505 1504 1504 1503 1501 1500 1498 1498 1496 1495 1494 1494 1493 1493 1492 1492 1491 1490 1490 1489 1488 1488 1487 1487 1486 1486 1485 1484 1484 1483 1483 1482 1481 1481 1480 1480 1480 1480 1480 1479 1479 1480 1480 1480 1480 1480 1479 1478 1478 1478 1477
1545 1545 1544 1544 1543 1543 1543 1542 1541 1541 1540 1539 1539 1538 1538 1537 1536 1535 1534 1533 1532 1531 1530 1529 1528 1527 1526 1525 1524 1523 1522 1522 1520 1519 1518 1516 1514 1513 1512 1509 1506 1503 1501 1500 1500 1502 1505 1506 1506 1505 1504 1503 1502 1501 1500 1499 1498 1497 1496 1495 1495 1494 1493 1493 1492 1491 1490 1489 1488 1488 1487 1487 1486 1485 1484 1484 1483 1483 1483 1483 1482 1481 1481 1480 1479 1479 1478 1478 1478 1478 1477 1477 1477 1477 1477 1477 1477 1477 1477 1477 1476 1475 1475
1544 1544 1543 1543 1542 1542 1541 1541 1540 1539 1539 1538 1538 1537 1536 1535 1535 1534 1533 1532 1531 1530 1529 1528 1527 1526 1524 1523 1523 1522 1521 1521 1520 1519 1518 1516 1514 1512 1510 1510 1509 1508 1505 1503 1499 1498 1501 1503 1502 1501 1500 1499 1498 1497 1496 1496 1495 1494 1494 1494 1493 1493 1492 1491 1490 1489 1488 1487 1486 1485 1484 1484 1483 1483 1482 1482 1481 1481 1480 1480 1479 1479 1479 1478 1478 1477 1476 1476 1475 1475 1475 1474 1474 1474 1473 1473 1473 1474 1474 1474 1474 1473 1473
1543 1543 1542 1542 1541 1541 1540 1539 1539 1538 1538 1537 1537 1536 1535 1534 1533 1533 1532 1531 1530 1529 1528 1527 1525 1524 1523 1522 1521 1521 1520 1520 1519 1518 1517 1516 1515 1513 1511 1510 1509 1508 1507 1507 1504 1500 1497 1498 1498 1496 1494 1495 1494 1493 1493 1493 1493 1493 1492 1492 1491 1490 1490 1489 1488 1487 1486 1485 1484 1483 1482 1482 1481 1481 1480 1480 1479 1478 1478 1477 1477 1476 1476 1476 1475 1475 1474 1474 1473 1473 1472 1472 1471 1471 1470 1470 1470 1470 1470 1471 1471 1471 1470
1541 1541 1541 1540 1540 1539 1539 1538 1538 1537 1536 1536 1535 1534 1533 1533 1532 1531 1530 1529 1528 1527 1526 1525 1524 1523 1523 1521 1520 1519 1518 1518 1518 1518 1517 1516 1515 1514 1513 1511 1508 1506 1505 1505 1505 1503 1499 1497 1494 1492 1491 1492 1493 1492 1491 1491 1491 1490 1490 1489 1488 1488 1487 1486 1486 1485 1483 1483 1482 1481 1481 1480 1479 1479 1478 1478 1477 1477 1476 1475 1474 1474 1473 1473 1473 1472 1472 1472 1472 1471 1470 1469 1468 1468 1468 1467 1467 1466 1466 1467 1467 1468 1468
1540 1540 1539 1539 1538 1538 1537 1537 1536 1536 1535 1534 1534 1533 1532 1531 1531 1530 1529 1528 1527 1526 1525 1524 1523 1523 1522 1521 1519 1518 1517 1517 1516 1516 1516 1515 1514 1514 1513 1513 1511 1509 1506 1505 1503 1502 1500 1498 1494 1489 1486 1490 1491 1490 1488 1488 1488 1488 1487 1487 1486 1486 1485 1484 1483 1482 1481 1481 1480 1479 1479 1478 1478 1477 1476 1476 1475 1474 1474 1473 1473 1472 1471 1470 1470 1469 1469 1468 1468 1468 1468 1467 1466 1466 1465 1464 1464 1463 1463 1463 1463 1463 1464
1538 1538 1538 1538 1537 1537 1536 1536 1535 1534 1534 1533 1532 1532 1531 1530 1529 1528 1528 1527 1525 1525 1524 1523 1522 1522 1521 1520 1518 1517 1516 1515 1515 1515 1515 1514 1513 1513 1513 1512 1512 1512 1511 1509 1505 1502 1498 1498 1498 1493 1484 1485 1488 1489 1488 1486 1485 1485 1485 1484 1484 1483 1483 1482 1481 1480 1479 1478 1478 1477 1477 1476 1476 1475 1474 1473 1473 1472 1471 1471 1470 1470 1469 1468 1468 1467 1466 1466 1465 1465 1465 1465 1464 1464 1463 1462 1462 1461 1461 1460 1460 1459 1460
1537 1537 1537 1536 1536 1535 1535 1534 1534 1533 1532 1532 1531 1530 1529 1529 1528 1527 1526 1525 1524 1523 1523 1522 1521 1520 1519 1518 1517 1516 1515 1514 1513 1513 1513 1513 1512 1512 1512 1511 1510 1510 1509 1509 1507 1505 1501 1498 1498 1495 1488 1480 1480 1484 1487 1486 1483 1483 1482 1482 1482 1481 1480 1479 1478 1478 1477 1477 1476 1475 1474 1474 1473 1473 1471 1471 1470 1469 1469 1468 1468 1467 1467 1466 1465 1465 1464 1463 1463 1462 1462 1462 1462 1462 1462 1461 1460 1459 1458 1458 1457 1457 1456
1536 1536 1535 1535 1534 1534 1533 1533 1532 1532 1531 1530 1529 1529 1528 1527 1526 1526 1525 1524 1523 1522 1521 1520 1520 1519 1518 1517 1516 1515 1514 1513 1512 1512 1511 1510 1510 1510 1510 1510 1509 1509 1508 1508 1507 1506 1504 1502 1499 1496 1493 1485 1477 1474 1479 1483 1483 1481 1479 1479 1479 1479 1478 1477 1476 1476 1475 1474 1473 1473 1472 1471 1470 1470 1469 1468 1467 1466 1466 1465 1465 1465 1464 1464 1463 1463 1462 1461 1461 1460 1459 1459 1459 1459 1459 1459 1458 1457 1456 1455 1454 1454 1453
1535 1534 1534 1533 1533 1533 1532 1532 1531 1530 1529 1529 1528 1527 1527 1526 1525 1524 1523 1522 1522 1521 1520 1519 1518 1518 1517 1516 1515 1514 1513 1512 1511 1511 1510 1509 1508 1508 1509 1508 1508 1507 1507 1506 1505 1505 1504 1503 1501 1499 1496 1492 1485 1476 1471 1474 1478 1480 1479 1478 1477 1476 1476 1475 1474 1473 1472 1471 1471 1470 1469 1468 1467 1467 1466 1465 1464 1463 1463 1463 1462 1462 1462 1461 1461 1460 1459 1459 1458 1458 1457 1456 1456 1456 1456 1456 1456 1455 1454 1453 1452 1452 1451
1533 1533 1533 1532 1532 1531 1531 1530 1529 1529 1528 1527 1526 1526 1525 1524 1523 1523 1522 1521 1520 1519 1519 1518 1517 1516 1515 1515 1514 1513 1512 1511 1510 1509 1509 1508 1507 1506 1507 1506 1506 1505 1504 1503 1503 1503 1502 1501 1500 1499 1498 1494 1490 1483 1476 1471 1472 1475 1475 1476 1476 1475 1473 1472 1472 1471 1470 1469 1468 1467 1466 1465 1464 1463 1463 1462 1462 1461 1460 1460 1459 1459 1459 1458 1458 1457 1457 1456 1455 1455 1454 1453 1453 1453 1452 1453 1453 1453 1452 1451 1450 1450 1449